Home   Weather   Amiens   Past weeks

Flag for France Past Weather in Amiens, Picardy, France — Yesterday and Last 2 Weeks

46 °F


Feels Like: 46 °F
Forecast: 45 / 59 °F
Wind: 2 mph from Northwest

Location: Beauvais Airport

Current Time: Oct 25, 2016 at 1:45:31 AM

Latest Report: Oct 25, 2016 at 1:00 AM

Visibility: 0 mi

Pressure: 30.04 "Hg

Humidity: 93%

Dew Point: 45 °F

Location of AmiensLocation

Past Weather in Amiens — Graph


Amiens Temperature Yesterday

Maximum temperature yesterday: 55 °F (at 4:00 PM)
Minimum temperature yesterday: 48 °F (at 12:00 AM)
Average temperature yesterday: 52 °F

High & Low Weather Summary for the Past Weeks

High68 °F (Oct 16, 2:30 PM)100% (Oct 10, 5:30 AM)30.30 "Hg (Oct 10, 5:30 AM)
Low32 °F (Oct 10, 5:30 AM)53% (Oct 16, 2:30 PM)29.62 "Hg (Oct 14, 3:00 PM)
Average49 °F86%30.00 "Hg
* Reported Oct 10 12:00 AM — Oct 25 12:30 AM, Amiens, Weather by CustomWeather, © 2016

Note: Actual official high and low records may vary slightly from our data, if they occured in-between our weather recording intervals... More about our weather records


Amiens Weather History for the Previous 24 Hours

Scroll right to see more
Time TempWeatherWind HumidityBarometerVisibility
12:30 AM
Tue, Oct 25
48 °FFog.No wind94%30.01 "Hg0 mi
12:00 AM50 °FFog.No wind94%30.01 "Hg1 mi
11:30 PM
Mon, Oct 24
52 °FFog.No wind94%30.01 "Hg2 mi
11:00 PM52 °FFog.1 mph94%30.01 "Hg3 mi
10:30 PM52 °FClear.No wind94%29.98 "Hg5 mi
10:00 PM52 °FClear.2 mph94%29.98 "Hg4 mi
9:30 PM54 °FLight rain. Clear.No wind88%29.98 "Hg4 mi
9:00 PM54 °FClear.1 mph88%29.95 "Hg10 mi
8:30 PM54 °FOvercast.1 mph88%29.95 "HgN/A
8:00 PM54 °FOvercast.6 mph94%29.95 "HgN/A
7:30 PM54 °FOvercast.2 mph94%29.95 "HgN/A
7:00 PM54 °FOvercast.3 mph94%29.92 "HgN/A
6:30 PM55 °FOvercast.2 mph88%29.92 "HgN/A
6:00 PM55 °FOvercast.2 mph88%29.92 "HgN/A
5:30 PM55 °FOvercast.3 mph88%29.89 "HgN/A
5:00 PM55 °FOvercast.2 mph88%29.89 "HgN/A
4:30 PM55 °FMostly cloudy.3 mph88%29.89 "HgN/A
4:00 PM55 °FOvercast.5 mph88%29.89 "HgN/A
3:30 PM54 °FMostly cloudy.No wind94%29.89 "Hg5 mi
3:00 PM54 °FMostly cloudy.1 mph94%29.86 "Hg4 mi
2:30 PM54 °FLow clouds.3 mph94%29.89 "Hg4 mi
2:00 PM54 °FLow clouds.No wind94%29.86 "Hg4 mi
1:30 PM54 °FLow clouds.No wind94%29.86 "Hg4 mi
1:00 PM52 °FLow clouds.No wind100%29.86 "Hg4 mi
12:30 PM52 °FFog.No wind100%29.86 "Hg3 mi
12:00 PM52 °FFog.1 mph94%29.86 "Hg3 mi
11:30 AM50 °FFog.No wind100%29.83 "Hg2 mi
11:00 AM50 °FFog.No wind100%29.83 "Hg1 mi
10:30 AM50 °FFog.2 mph100%29.83 "Hg1 mi
10:00 AM50 °FFog.3 mph94%29.83 "Hg1 mi
9:30 AM50 °FFog.3 mph94%29.83 "Hg1 mi
9:00 AM50 °FFog.3 mph94%29.83 "Hg1 mi
8:30 AM50 °FDense fog.5 mph94%29.80 "Hg1 mi
8:00 AM50 °FFog.6 mph94%29.77 "Hg1 mi
7:30 AM50 °FFog.5 mph94%29.80 "Hg1 mi
7:00 AM50 °FFog.3 mph94%29.80 "Hg1 mi
6:30 AM50 °FFog.2 mph94%29.80 "Hg1 mi
6:00 AM50 °FFog.3 mph94%29.80 "Hg1 mi
5:30 AM50 °FFog.2 mph94%29.77 "Hg1 mi
5:00 AM50 °FFog.5 mph94%29.77 "Hg1 mi
4:30 AM50 °FFog.3 mph94%29.77 "Hg3 mi
4:00 AM50 °FLow clouds.3 mph94%29.77 "Hg4 mi
3:30 AM50 °FLow clouds.5 mph94%29.77 "Hg4 mi
3:00 AM48 °FLow clouds.5 mph100%29.77 "Hg4 mi
2:30 AM48 °FLow clouds.6 mph100%29.77 "Hg4 mi
2:00 AM48 °FFog.5 mph100%29.77 "Hg3 mi
1:30 AM48 °FFog.5 mph100%29.80 "Hg3 mi
1:00 AM48 °FDrizzle. Fog.5 mph100%29.77 "Hg2 mi
Weather by CustomWeather, © 2016

See weather overviewHow to use our weather pages